星链-32409 (STARLINK-32409)

导读 | 豆包AI

STARLINK-32409是美国SpaceX公司于2024年10月18日发射的星链低轨互联网卫星,属于全球星链星座组网计划的组成部分。星链项目旨在通过近地轨道卫星集群,为全球偏远、无网络覆盖区域提供低延迟、高速宽带互联网服务。该卫星的成功入轨,进一步扩充了星链星座规模,助力SpaceX实现全球泛在互联的组网目标,也推动了低轨卫星互联网产业的发展。

基本信息
目录编号:
61591
目录名称:
STARLINK-32409
国际标识:
2024-187T
轨道中心:
EARTH
卫星名称:
星链-32409
卫星全名:
星链-32409 (STARLINK-32409)
卫星状态:
在轨 (已飞行513 天)
发射日期:
2024-10-18 UTC
国别 :
美国 (US)
星等 :
--
轨道信息
数据来源 国际轨道数据
星历时间: 2026-03-15T12:19:37+0800
8小时前
查看轨道信息
半长轴: 6853.419km
偏心率: 0.0001147
轨道倾角: 53.164°
近地点辐角 93.003°
升交点赤经 24.653°
平近点角 267.110°
近地点: 474.495km
远地点: 476.069km
周期: 94.107分钟
每日圈数: 15.301778
详细信息
固有亮度:
5
最大亮度:
2.5
卫星平台:
Starlink V1.0
覆盖范围:
全球
运营商:
太空探索技术公司
运营商所在国:
美国
制造商(研发单位):
太空探索技术公司
制造商所在国:
美国
使用方式:
暂无
卫星简介
Starlink 计划是 SpaceX 推出的全球卫星互联网项目,通过发射低轨道卫星,为全球尤其是偏远地区提供高速、低延迟的互联网服务。自 2019 年起,Starlink 已部署数千颗卫星,旨在缩小全球数字鸿沟,推动互联网普及。该项目还为军事、航空等行业提供通信支持,带来广泛经济效益。
2D轨道图
3D轨道图
轨道高度分析图
轨道倾角分析图
轨道综合分析图
查看轨道综合分析图